This demonstration page uses our WeatherBlox Daily Observations layout. Learn more.

Left ArrowRight Arrow

Hourly Observations for November 19, 2015

Temp ( °F °C ) Dew Point ( °F °C ) Humidity (%) Winds ( mph kmh ) Pressure ( in mb ) Visibility ( mi km ) Precip ( " mm )
12:53 am 00:53 Clear 44 6.7 40 4.4 85 85 Calm 30.15 1021 10 16 0.00 0.00
1:53 am 01:53 Clear with Mist and Fog 43 6.1 39 3.9 86 86 NNE 3 6 30.14 1021 6 10 0.00 0.00
2:53 am 02:53 Clear with Mist and Fog 43 6.1 39 3.9 86 86 W 3 6 30.14 1021 6 10 0.00 0.00
3:53 am 03:53 Clear 42 5.6 38 3.3 85 85 Calm 30.14 1021 8 13 0.00 0.00
4:53 am 04:53 Clear 41 5 36 2.2 82 82 Calm 30.15 1021 10 16 0.00 0.00
5:53 am 05:53 Clear 41 5 36 2.2 82 82 VRB 3 6 30.15 1021 9 14 0.00 0.00
6:53 am 06:53 Clear 39 3.9 35 1.7 86 86 E 5 7 30.18 1022 10 16 0.00 0.00
7:53 am 07:53 Sunny 42 5.6 38 3.3 85 85 ENE 5 7 30.19 1022 10 16 0.00 0.00
8:53 am 08:53 Sunny 49 9.4 44 6.7 83 83 Calm 30.20 1023 10 16 0.00 0.00
9:53 am 09:53 Sunny 52 11.1 45 7.2 77 77 WSW 3 6 30.19 1022 10 16 0.00 0.00
10:53 am 10:53 Sunny 58 14.4 47 8.3 67 67 Calm 30.18 1022 10 16 0.00 0.00
11:53 am 11:53 Mostly Sunny 62 16.7 46 7.8 56 56 Calm 30.15 1021 10 16 0.00 0.00
12:53 pm 12:53 Sunny 64 17.8 47 8.3 54 54 Calm 30.12 1020 10 16 0.00 0.00
1:53 pm 13:53 Sunny 66 18.9 46 7.8 49 49 SE 3 6 30.11 1020 10 16 0.00 0.00
2:53 pm 14:53 Mostly Sunny 67 19.4 46 7.8 47 47 Calm 30.09 1019 10 16 0.00 0.00
3:53 pm 15:53 Partly Cloudy 67 19.4 47 8.3 49 49 S 3 6 30.09 1019 10 16 0.00 0.00
4:53 pm 16:53 Clear 63 17.2 47 8.3 56 56 Calm 30.10 1019 10 16 0.00 0.00
5:53 pm 17:53 Partly Cloudy 59 15 48 8.9 67 67 N 3 6 30.11 1020 10 16 0.00 0.00
6:53 pm 18:53 Clear 54 12.2 46 7.8 75 75 Calm 30.11 1020 10 16 0.00 0.00
7:53 pm 19:53 Clear 53 11.7 46 7.8 77 77 N 6 9 30.12 1020 10 16 0.00 0.00
8:53 pm 20:53 Clear 50 10 44 6.7 80 80 WNW 3 6 30.13 1020 10 16 0.00 0.00
9:53 pm 21:53 Clear 52 11.1 45 7.2 77 77 NNW 5 7 30.13 1020 10 16 0.00 0.00
10:53 pm 22:53 Clear 49 9.4 43 6.1 80 80 Calm 30.14 1021 10 16 0.00 0.00
11:53 pm 23:53 Clear 47 8.3 42 5.6 83 83 NW 3 6 30.14 1021 10 16 0.00 0.00

Powered by AerisWeather